Location: Petruro
(41.0333°N, 14.7833°E)
Time: 23:25:31
(UTC+00:00)

FALCON 9 DEB - Visible Passes

Search period start: 23 October 2021 00:00
Search period end: 02 November 2021 00:00
Orbit: 353 x 363 km, 53.0° (Epoch: 23 October)

Date Brightness Start Highest point End Pass type
(mag) Time Alt. Az. Time Alt. Az. Time Alt. Az.
23 Oct 5.4 17:51:12 10° SSW 17:51:40 13° S 17:51:40 13° S visible
24 Oct 5.7 18:19:07 10° WSW 18:19:44 15° WSW 18:19:44 15° WSW visible
25 Oct 3.6 17:12:29 10° SSW 17:15:12 33° SE 17:15:51 29° ESE visible
26 Oct 3.0 17:40:30 10° WSW 17:43:26 59° NW 17:43:32 59° NNW visible
27 Oct 3.3 16:33:36 10° SSW 16:36:25 41° SE 16:39:14 10° ENE visible
27 Oct 5.3 18:09:27 10° W 18:11:02 19° NW 18:11:02 19° NW visible
28 Oct 3.5 17:01:40 10° WSW 17:04:32 49° NW 17:06:39 16° NE visible
29 Oct 4.9 17:30:37 10° WNW 17:32:52 19° NNW 17:33:51 17° N visible
30 Oct 3.8 16:22:36 10° WSW 16:25:25 41° NNW 16:28:16 10° NE visible
30 Oct 5.8 18:00:20 10° NW 18:00:54 11° NNW 18:00:54 11° NNW visible
31 Oct 5.1 16:51:33 10° WNW 16:53:40 18° NNW 16:55:48 10° NNE visible
01 Nov 5.5 17:21:19 10° NNW 17:22:04 11° NNW 17:22:50 10° N visible
